Terminal Aerodrome Forecast
Issued by NWS Jacksonville, FL

Home | Current Version | Previous Version | Text Only | Print | Product List | Glossary On
Versions: 1 2 3 4 5 6 7 8 9 10 11 12 13 14 15 16 17 18 19 20 21 22 23 24 25 26 27 28 29 30 31 32 33 34
000
FTUS42 KJAX 280548
TAFJAX
TAF
KJAX 280548Z 2806/2906 10005KT P6SM VCSH SCT035 BKN060 OVC100
     FM281300 08010KT 5SM -SHRA SCT015 BKN025 OVC060
     FM281600 09011G18KT P6SM VCSH SCT030 BKN060 OVC200
     FM290300 12008KT P6SM VCSH SCT020 SCT060 BKN200=

USA.gov is the U.S. government's official web portal to all federal, state and local government web resources and services.